User: anonymous   Login
Location: Lafig�re
(44.4503°N, 4.0357°E)
Time: 01:42:56
(UTC+00:00)
Language:

H-2A R/B - Orbit

View from above orbital plane
View from above orbital plane
View from above satellite
View from above satellite

Ground track
Ground track

The orbit data is extracted from the following two-line orbital elements,

1 27601U 02056E   20338.12830612  .00000114  00000-0  55867-4 0  9999
2 27601  98.2089   5.0777 0073036 134.5780 262.8958 14.31987758938831
Epoch (UTC): 03 December 2020 03:04:45
Eccentricity: 0.0073036
inclination: 98.2089°
perigee height: 733 km
apogee height: 837 km
right ascension of ascending node: 5.0777°
argument of perigee: 134.5780°
revolutions per day: 14.31987758
mean anomaly at epoch: 262.8958°
orbit number at epoch: 93883

The dashed part of the orbit path shows where the satellite is in the earth's shadow,  

DLR